Wind_Speed
46 48 50 48 47 45 44 44 44 44 44 46 47 47 48 50 50 47 46 46 46 46 48 49 51 52 51 51 50 48 55 55 55 53 52 54 57 58 61 62 63 64 62 59 57 53 52
53 50 49 48 50 50 47 47 46 46 48 49 49 49 50 48 48 47 45 46 46 49 50 51 52 52 53 53 54 55 53 57 57 58 59 56 57 58 57 63 66 64 64 64 62 59 57
53 50 52 50 50 49 49 50 48 48 49 50 50 49 49 48 46 46 46 47 48 49 49 50 52 55 56 57 58 59 60 61 60 61 62 60 58 63 59 60 62 63 68 68 68 64 63
55 51 52 54 53 55 52 51 50 48 47 47 47 46 46 45 45 46 47 47 48 47 47 53 56 57 58 60 63 65 68 70 69 68 68 66 64 63 64 62 64 65 66 70 62 67 68
56 59 54 54 56 56 54 49 46 45 44 45 46 46 45 44 44 46 46 47 47 48 52 55 55 58 60 65 67 70 75 78 76 76 75 76 74 70 67 65 66 66 65 64 66 67 67
62 48 48 48 51 48 45 44 44 43 44 46 46 47 45 45 44 44 46 47 50 52 51 55 55 59 67 67 72 78 82 85 86 86 85 83 82 82 76 74 75 71 71 67 66 69 68
63 56 47 47 49 46 44 44 42 43 44 46 47 45 42 43 43 41 43 44 45 48 51 57 61 67 73 75 76 79 84 91 89 92 94 81 83 91 86 76 69 60 61 61 60 63 60
57 56 46 48 49 48 47 44 43 45 46 46 43 41 41 41 41 41 41 45 48 50 51 57 62 72 77 82 81 62 61 62 66 68 66 66 70 78 78 73 69 62 60 59 52 55 41
60 54 45 48 51 50 48 48 47 46 46 44 40 37 37 39 39 39 42 47 49 52 56 62 70 74 68 63 50 45 47 44 54 52 44 44 47 53 69 70 65 61 61 57 51 48 51
57 45 43 49 51 50 51 50 50 48 44 43 39 32 35 37 38 39 43 47 49 51 57 67 64 61 43 38 32 32 38 43 17 7 1 21 15 37 56 67 48 56 52 51 45 50 52
44 47 48 49 52 55 55 51 55 47 42 38 32 32 33 35 37 39 42 45 48 51 60 55 58 42 25 29 25 24 29 6 3 5 16 18 23 27 28 52 45 43 36 36 44 51 55
45 48 50 50 51 49 48 50 51 39 32 29 28 31 32 34 36 37 40 43 46 52 52 45 39 19 18 26 31 21 18 10 18 14 20 11 13 16 16 20 32 29 36 38 45 50 53
45 44 45 45 48 50 48 42 43 32 30 29 27 29 31 33 34 37 40 42 46 51 49 39 27 18 21 19 24 16 13 4 14 5 3 9 17 18 32 24 36 39 42 43 44 46 39
43 39 49 45 42 40 41 38 31 29 23 23 28 28 30 29 31 35 38 42 46 46 38 30 21 18 16 12 19 13 6 5 8 11 4 12 8 24 21 33 36 42 39 40 42 41 36
41 39 41 38 36 34 33 31 26 21 23 25 26 27 26 27 30 33 37 41 43 40 32 22 15 19 19 17 13 9 5 0 13 12 4 7 6 14 22 25 26 32 31 23 24 24 20
37 35 38 34 33 32 30 26 23 24 24 25 24 23 23 24 28 31 34 39 38 29 21 16 15 17 20 20 9 7 10 2 5 12 15 6 1 9 25 19 20 18 18 28 24 16 15
34 36 35 33 32 30 28 25 27 21 23 23 24 21 21 22 25 29 32 36 32 20 17 14 11 13 15 17 21 18 12 5 2 8 16 22 3 18 11 21 21 20 22 25 22 22 12
36 32 33 34 32 30 27 29 27 22 22 21 21 19 19 21 23 26 30 31 24 15 14 14 10 8 10 12 17 21 18 11 6 8 12 18 18 10 13 9 16 20 21 25 25 26 21
35 36 34 36 33 30 33 30 27 24 24 21 19 17 17 19 20 22 27 24 14 13 14 14 11 6 7 10 12 13 13 22 12 9 12 14 15 20 10 14 19 22 22 20 23 19 21
40 37 37 37 35 36 34 31 26 27 24 22 19 17 15 16 15 18 22 16 11 12 14 14 13 9 8 11 13 15 11 11 17 9 7 14 14 15 9 13 20 21 19 21 24 27 17
35 36 40 41 38 36 33 32 28 26 24 18 18 16 14 12 11 14 16 11 10 13 13 12 11 10 12 13 13 19 22 15 8 18 20 12 20 10 12 10 13 15 24 25 24 20 26
36 36 40 43 37 37 34 31 32 27 24 19 20 17 13 9 7 9 9 9 8 7 7 9 11 13 15 16 19 21 22 24 15 14 21 22 10 11 5 11 3 11 18 19 14 17 21
37 37 40 42 38 34 37 33 28 28 24 21 19 18 12 9 7 4 4 4 5 6 7 9 9 9 12 14 16 18 21 26 26 17 16 16 13 12 10 12 6 12 7 7 9 9 10
39 38 40 41 40 36 39 35 24 28 25 20 19 17 14 11 10 11 8 9 9 7 6 9 10 11 13 15 16 6 5 12 15 16 17 16 12 13 11 8 8 14 12 13 15 23 25
33 38 37 39 39 35 36 34 30 27 25 21 20 20 17 15 13 14 13 13 11 10 10 10 11 12 13 14 8 4 4 7 11 5 8 14 16 14 11 11 11 12 13 14 16 19 18
34 35 34 35 35 37 35 33 33 31 25 22 22 23 19 18 14 14 15 16 16 15 14 14 13 13 14 13 7 6 4 5 6 11 10 10 10 14 15 14 15 19 14 16 19 20 22
34 35 35 37 36 34 37 34 29 26 23 24 24 24 22 21 16 15 15 15 17 18 17 16 16 14 13 11 5 3 4 4 5 10 2 9 15 16 14 16 19 18 18 18 21 25 28
36 33 32 33 31 30 28 28 25 25 24 23 27 27 25 21 17 17 15 14 16 17 17 17 18 17 14 11 6 6 5 6 9 5 5 7 10 11 13 17 19 23 25 22 20 29 26
40 36 34 31 30 28 27 28 27 27 26 27 31 30 26 20 20 18 18 15 15 16 18 16 16 16 15 11 11 7 11 6 8 10 14 13 12 10 8 10 9 20 19 23 27 19 33
Wind_Direction
270 272 268 267 263 262 263 267 270 270 274 280 284 286 288 290 290 285 283 284 283 283 283 282 281 279 277 278 277 274 275 276 275 271 266 261 259 254 252 254 253 253 251 252 251 249 250
275 272 268 267 265 262 265 269 269 271 278 282 283 285 288 287 285 282 283 284 285 286 286 285 284 283 281 279 277 278 277 276 273 272 269 263 260 257 252 251 252 251 250 249 249 248 247
272 268 266 268 266 265 268 268 269 271 276 279 280 282 283 283 282 282 284 285 287 287 286 285 284 284 284 283 283 280 278 278 277 274 271 265 257 252 251 250 250 250 248 248 246 248 247
265 264 266 269 269 269 270 271 272 274 276 277 278 279 281 280 282 284 287 287 287 287 289 290 288 290 292 291 289 288 285 283 283 278 273 267 258 254 251 249 248 247 247 247 247 248 247
263 270 268 265 266 266 266 270 271 273 274 275 276 279 281 280 284 287 288 289 289 288 291 290 293 296 296 294 293 289 286 282 279 274 268 266 261 256 247 246 243 244 249 248 245 244 247
261 276 267 261 261 262 264 267 269 271 274 275 278 279 279 282 284 287 289 287 288 291 295 296 296 292 292 294 295 294 293 288 283 277 272 265 255 247 242 239 245 258 249 242 242 245 244
266 268 264 263 261 257 261 263 266 267 267 271 274 275 276 279 281 282 289 291 297 297 297 300 305 304 304 303 302 298 289 286 281 275 269 259 247 241 243 246 253 243 246 248 246 247 250
271 265 265 262 257 256 260 260 263 263 266 270 272 272 276 281 286 295 298 297 296 301 302 304 308 310 307 306 303 297 292 292 285 276 268 263 250 243 239 235 236 235 237 239 243 241 235
269 261 261 257 256 251 257 259 258 262 266 270 267 270 279 286 291 297 300 300 303 305 310 311 312 314 314 306 303 305 304 300 294 276 266 261 258 244 228 221 225 228 232 234 236 237 230
272 255 251 250 251 250 255 258 258 258 263 265 264 274 283 289 293 298 301 304 308 313 316 321 321 316 301 302 309 309 313 316 305 178 92 283 268 224 222 215 210 223 227 231 233 232 235
258 252 245 247 253 251 252 261 258 253 260 265 269 276 284 291 296 302 305 310 314 318 321 321 318 307 302 310 320 317 321 297 159 225 213 244 220 217 217 216 202 216 218 231 223 226 237
252 255 253 250 254 253 257 257 260 254 256 260 267 275 286 293 300 307 309 313 318 321 325 318 313 285 287 302 314 315 336 248 233 157 200 257 149 176 168 222 197 206 211 217 227 236 240
246 249 253 251 250 254 253 248 254 252 254 259 270 282 288 295 303 308 313 319 320 326 329 320 302 272 292 316 325 312 328 224 253 274 330 125 181 188 183 200 194 214 211 210 226 238 241
243 241 248 252 249 251 249 249 245 249 256 265 276 283 291 301 307 311 318 321 326 331 327 314 291 259 285 321 333 323 49 153 285 278 9 209 296 199 190 202 197 210 217 223 232 242 248
233 240 241 244 245 247 246 244 245 248 258 267 278 285 296 303 308 314 321 326 331 332 322 312 274 275 293 319 331 348 150 98 224 227 232 309 342 149 164 185 202 210 218 219 230 242 240
232 231 231 239 239 234 238 238 237 244 257 268 276 289 296 304 311 320 325 332 334 330 318 315 304 301 318 312 16 26 136 322 254 264 247 232 192 311 151 194 209 213 203 187 185 175 192
228 225 231 231 233 230 229 225 238 245 256 268 279 289 296 305 316 325 331 335 338 328 321 325 330 346 356 343 345 18 26 202 220 217 211 204 324 208 245 205 177 181 182 193 192 174 176
230 228 225 228 227 224 219 227 237 240 253 267 280 287 296 307 324 329 334 339 339 329 322 323 329 343 352 356 352 357 3 39 246 234 216 233 212 183 186 234 217 200 190 200 196 197 180
228 224 222 219 218 212 222 224 232 240 253 261 277 283 295 310 326 330 338 339 340 326 319 315 317 325 341 344 345 344 357 343 22 262 264 233 193 215 222 208 206 225 214 192 212 193 212
224 225 219 217 213 216 223 229 234 240 246 259 273 275 288 308 324 328 338 336 333 338 324 316 317 325 342 337 329 320 342 343 344 344 332 247 231 243 296 198 195 194 212 209 193 198 190
233 219 217 212 216 220 220 229 233 247 247 261 270 265 280 305 317 330 337 331 324 325 329 329 334 345 350 339 326 319 315 319 302 309 312 317 248 250 271 177 209 204 196 201 216 213 201
227 220 220 220 220 216 221 230 235 242 251 257 258 258 271 290 296 329 342 329 322 336 359 355 353 351 344 336 325 315 302 299 292 280 283 296 283 285 265 176 95 163 187 187 192 203 192
225 222 225 226 227 220 229 235 238 239 249 253 242 250 256 263 263 272 334 326 326 334 340 334 336 338 336 335 322 303 299 297 295 278 257 256 273 283 286 227 194 207 186 202 187 205 213
221 225 228 233 231 231 235 237 239 241 245 246 243 249 253 252 256 249 251 277 291 301 306 316 326 331 335 338 330 346 3 7 344 286 254 239 223 249 263 265 251 228 222 229 224 218 223
224 227 231 235 238 238 240 242 244 244 249 244 238 243 245 244 246 249 254 255 265 271 277 291 310 323 332 346 350 351 344 9 357 34 189 207 214 211 223 241 228 244 230 224 227 244 243
221 226 231 231 234 237 235 237 242 240 250 240 235 241 243 243 244 250 256 262 265 270 276 285 299 314 327 345 10 16 358 0 344 343 192 207 211 215 211 223 231 243 240 226 231 243 260
219 220 225 228 230 239 235 236 235 241 234 236 241 241 241 244 246 250 256 261 265 272 275 280 289 300 314 330 348 12 334 282 296 333 36 202 218 211 221 223 237 232 238 236 235 231 247
224 222 218 216 223 225 222 226 230 232 234 236 237 241 240 242 248 254 263 264 267 267 275 275 281 290 299 307 295 262 237 247 257 294 270 295 191 221 221 231 244 244 242 243 237 233 227
222 224 226 225 223 224 228 232 233 235 238 236 233 236 237 242 245 251 259 266 268 273 269 273 279 284 285 280 272 250 229 236 247 242 313 281 275 257 274 206 230 233 242 241 243 241 221
Height
5726 5725 5726 5726 5727 5727 5728 5729 5729 5730 5729 5730 5728 5727 5727 5726 5725 5722 5721 5721 5720 5720 5718 5716 5715 5715 5717 5718 5715 5713 5711 5710 5712 5714 5716 5715 5714 5714 5719 5721 5721 5726 5733 5734 5738 5742 5745
5716 5715 5715 5715 5716 5717 5718 5718 5719 5720 5720 5719 5718 5717 5716 5715 5714 5712 5711 5710 5709 5708 5706 5703 5702 5702 5703 5704 5700 5699 5698 5697 5696 5697 5700 5701 5703 5700 5705 5706 5705 5715 5716 5722 5723 5729 5734
5704 5705 5704 5705 5705 5706 5707 5708 5708 5708 5709 5708 5707 5706 5706 5705 5703 5703 5702 5700 5698 5697 5694 5691 5690 5690 5691 5688 5684 5684 5684 5683 5682 5681 5683 5683 5684 5680 5690 5692 5695 5697 5698 5705 5711 5720 5719
5693 5693 5693 5693 5693 5695 5695 5696 5697 5697 5697 5696 5696 5695 5695 5694 5693 5692 5691 5690 5688 5687 5683 5678 5677 5676 5676 5671 5669 5665 5663 5662 5663 5662 5663 5666 5664 5666 5668 5673 5678 5679 5681 5690 5708 5703 5704
5679 5679 5679 5680 5680 5681 5684 5685 5686 5685 5685 5685 5685 5685 5684 5683 5683 5683 5681 5680 5678 5676 5672 5664 5665 5661 5658 5658 5654 5649 5644 5641 5642 5638 5641 5641 5641 5645 5649 5654 5657 5662 5673 5679 5688 5686 5691
5666 5666 5667 5667 5668 5670 5671 5673 5675 5675 5675 5675 5675 5675 5675 5674 5673 5672 5672 5670 5667 5665 5659 5652 5654 5651 5640 5642 5636 5626 5613 5607 5610 5609 5609 5611 5611 5610 5620 5628 5634 5655 5654 5658 5670 5675 5678
5653 5653 5655 5656 5658 5658 5660 5662 5664 5665 5666 5666 5666 5665 5665 5665 5665 5664 5663 5660 5658 5652 5647 5640 5632 5625 5617 5616 5615 5605 5583 5576 5577 5573 5572 5576 5569 5570 5600 5618 5634 5641 5642 5648 5659 5667 5667
5639 5640 5642 5645 5646 5648 5650 5651 5653 5655 5657 5655 5654 5655 5657 5657 5654 5651 5650 5647 5645 5639 5636 5626 5618 5607 5599 5593 5587 5581 5561 5552 5544 5540 5539 5539 5534 5560 5587 5601 5604 5620 5626 5635 5646 5654 5648
5625 5627 5629 5632 5636 5636 5640 5641 5642 5645 5647 5647 5645 5647 5646 5646 5644 5644 5640 5636 5631 5627 5618 5608 5602 5593 5581 5572 5566 5564 5547 5539 5524 5515 5519 5520 5530 5545 5561 5573 5586 5601 5611 5624 5638 5640 5631
5615 5615 5615 5620 5624 5626 5629 5630 5632 5635 5637 5638 5638 5637 5638 5638 5638 5634 5631 5626 5620 5615 5606 5598 5586 5575 5570 5563 5561 5552 5541 5527 5508 5510 5517 5521 5527 5529 5543 5555 5574 5590 5606 5617 5625 5625 5628
5604 5606 5604 5607 5612 5614 5616 5620 5621 5624 5627 5628 5630 5630 5630 5629 5627 5624 5621 5616 5610 5604 5599 5589 5579 5568 5564 5558 5552 5550 5535 5526 5518 5520 5520 5523 5524 5531 5542 5554 5568 5585 5599 5606 5610 5608 5618
5591 5595 5596 5596 5601 5603 5607 5609 5614 5616 5617 5620 5622 5623 5624 5622 5620 5616 5613 5608 5603 5596 5585 5579 5568 5564 5560 5556 5548 5541 5532 5523 5520 5521 5525 5528 5529 5534 5545 5558 5568 5584 5588 5593 5598 5603 5606
5579 5583 5588 5588 5590 5594 5597 5599 5606 5608 5610 5612 5614 5616 5616 5614 5612 5608 5604 5600 5595 5587 5577 5570 5562 5559 5557 5553 5545 5540 5531 5527 5527 5528 5527 5528 5535 5538 5545 5555 5565 5569 5578 5585 5591 5595 5609
5568 5568 5577 5580 5582 5586 5588 5593 5597 5600 5604 5606 5608 5610 5609 5606 5604 5602 5597 5591 5585 5576 5567 5561 5557 5556 5554 5553 5546 5540 5536 5533 5534 5532 5531 5531 5531 5537 5546 5553 5561 5563 5574 5582 5588 5594 5602
5555 5560 5567 5571 5575 5578 5583 5587 5590 5594 5597 5600 5602 5603 5601 5600 5598 5595 5589 5582 5575 5569 5562 5558 5555 5553 5553 5551 5546 5542 5538 5536 5535 5535 5536 5536 5536 5539 5545 5553 5559 5565 5572 5583 5587 5592 5594
5546 5551 5557 5563 5567 5571 5576 5580 5585 5587 5591 5594 5595 5596 5596 5594 5593 5588 5582 5575 5568 5563 5559 5556 5553 5552 5551 5551 5547 5542 5539 5539 5537 5537 5539 5540 5543 5541 5544 5555 5560 5564 5573 5577 5581 5588 5591
5537 5542 5548 5554 5559 5564 5569 5574 5578 5581 5585 5587 5590 5590 5590 5589 5586 5581 5575 5570 5564 5560 5558 5556 5552 5551 5551 5550 5547 5543 5542 5541 5540 5540 5540 5541 5540 5548 5551 5554 5558 5563 5567 5573 5580 5584 5588
5529 5534 5540 5546 5551 5557 5562 5568 5572 5576 5579 5580 5583 5584 5585 5583 5581 5575 5571 5566 5562 5559 5556 5553 5552 5550 5549 5548 5547 5545 5544 5542 5540 5540 5542 5543 5544 5545 5551 5557 5559 5563 5567 5571 5575 5582 5584
5521 5526 5533 5539 5545 5551 5557 5561 5565 5570 5572 5575 5577 5580 5579 5577 5575 5572 5567 5563 5561 5558 5555 5553 5551 5550 5548 5547 5547 5545 5544 5541 5543 5542 5541 5542 5543 5547 5549 5552 5555 5559 5564 5568 5572 5577 5580
5512 5519 5527 5532 5537 5544 5550 5555 5559 5563 5566 5570 5573 5574 5574 5572 5570 5568 5564 5561 5560 5557 5554 5552 5550 5548 5547 5547 5545 5543 5545 5543 5542 5542 5540 5541 5540 5542 5544 5544 5550 5555 5560 5565 5569 5573 5579
5508 5513 5519 5525 5530 5538 5543 5547 5553 5557 5560 5565 5567 5568 5568 5567 5567 5564 5562 5560 5558 5557 5554 5551 5548 5546 5545 5544 5544 5541 5540 5542 5542 5543 5541 5541 5538 5540 5541 5544 5546 5549 5554 5559 5566 5572 5575
5502 5508 5512 5518 5523 5531 5536 5540 5545 5551 5555 5559 5561 5564 5564 5563 5563 5562 5559 5559 5558 5556 5554 5552 5548 5545 5544 5543 5541 5539 5537 5535 5538 5540 5540 5540 5541 5541 5541 5545 5544 5549 5554 5558 5562 5567 5571
5495 5501 5507 5511 5518 5524 5531 5534 5540 5544 5548 5552 5555 5557 5557 5559 5559 5559 5557 5557 5556 5555 5554 5552 5550 5548 5546 5545 5542 5538 5534 5531 5530 5535 5536 5538 5540 5542 5542 5544 5546 5551 5552 5557 5560 5565 5565
5488 5494 5500 5506 5512 5519 5524 5529 5534 5538 5542 5546 5549 5550 5552 5553 5553 5554 5554 5555 5554 5554 5553 5551 5549 5548 5547 5543 5540 5537 5535 5532 5528 5526 5531 5535 5538 5541 5544 5545 5549 5549 5554 5556 5559 5559 5562
5481 5488 5494 5501 5507 5513 5518 5523 5528 5532 5534 5539 5541 5544 5546 5548 5549 5549 5550 5551 5551 5551 5551 5549 5547 5546 5544 5542 5539 5537 5536 5534 5530 5526 5530 5533 5537 5539 5543 5545 5548 5547 5550 5553 5554 5556 5558
5474 5481 5487 5494 5499 5505 5510 5516 5521 5525 5528 5531 5534 5537 5541 5542 5544 5544 5545 5546 5546 5546 5547 5546 5544 5543 5542 5540 5538 5537 5535 5534 5533 5532 5530 5532 5536 5540 5541 5543 5545 5546 5548 5549 5550 5552 5552
5467 5473 5480 5486 5492 5498 5503 5509 5514 5518 5522 5525 5527 5531 5534 5536 5539 5540 5541 5541 5541 5541 5542 5542 5541 5540 5539 5538 5537 5536 5535 5534 5534 5533 5532 5533 5534 5538 5540 5540 5541 5542 5543 5545 5547 5549 5546
5459 5465 5472 5479 5485 5491 5496 5502 5507 5511 5515 5518 5521 5525 5528 5531 5533 5534 5536 5536 5536 5537 5537 5537 5537 5536 5536 5535 5535 5534 5534 5534 5534 5534 5534 5533 5534 5535 5537 5537 5538 5537 5539 5541 5542 5540 5543
5451 5458 5464 5471 5477 5483 5489 5494 5499 5504 5509 5512 5516 5519 5522 5526 5528 5529 5530 5532 5532 5532 5532 5532 5532 5532 5531 5531 5530 5531 5532 5533 5533 5534 5532 5533 5532 5531 5531 5531 5530 5531 5534 5535 5535 5537 5536